• In Austria
  • List of Countries
  • For 7 days
  • Water Temperature
  • Satellite Maps
  • Weather Map
  • News
  • Weather Widgets
  • user-avatar
    Login

    Hourly Weather Elbasan

    Today, 24 September, Monday

    Time Temperature Precipitation Wind Pressure Humidity
    00:00 +22°C° 0 mm 1 mps 737 mmHg 57%
    01:00 +22°C° 0 mm 1 mps 736 mmHg 58%
    02:00 +21°C° 0 mm 1 mps 736 mmHg 58%
    03:00 +21°C° 0 mm 1 mps 736 mmHg 58%
    04:00 +19°C° 0 mm 2 mps 736 mmHg 58%
    05:00 +20°C° 0 mm 2 mps 736 mmHg 55%
    06:00 +21°C° 0 mm 2 mps 736 mmHg 53%
    07:00 +24°C° 0 mm 2 mps 735 mmHg 51%
    08:00 +26°C° 0 mm 2 mps 735 mmHg 45%
    09:00 +27°C° 0 mm 2 mps 735 mmHg 40%
    10:00 +29°C° 0 mm 3 mps 735 mmHg 35%
    11:00 +30°C° 0 mm 3 mps 735 mmHg 35%
    12:00 +30°C° 0 mm 3 mps 735 mmHg 34%
    13:00 +32°C° 0 mm 4 mps 735 mmHg 35%
    14:00 +30°C° 0.1 mm 4 mps 735 mmHg 40%
    15:00 +29°C° 0.1 mm 3 mps 735 mmHg 46%
    16:00 +28°C° 0.1 mm 3 mps 735 mmHg 51%
    17:00 +26°C° 0.2 mm 3 mps 736 mmHg 59%
    18:00 +24°C° 0.2 mm 2 mps 736 mmHg 67%
    19:00 +21°C° 0.2 mm 2 mps 736 mmHg 75%
    20:00 +20°C° 0 mm 2 mps 737 mmHg 75%
    21:00 +20°C° 0 mm 2 mps 737 mmHg 75%
    22:00 +19°C° 0 mm 3 mps 738 mmHg 74%
    23:00 +18°C° 0.1 mm 3 mps 738 mmHg 71%

    Tomorrow, 25 September, Tuesday

    Time Temperature Precipitation Wind Pressure Humidity
    00:00 +18°C° 0.1 mm 3 mps 739 mmHg 68%
    01:00 +17°C° 0.1 mm 4 mps 739 mmHg 65%
    02:00 +15°C° 0 mm 4 mps 739 mmHg 64%
    03:00 +14°C° 0 mm 4 mps 739 mmHg 64%
    04:00 +13°C° 0 mm 4 mps 740 mmHg 63%
    05:00 +14°C° 0 mm 4 mps 740 mmHg 60%
    06:00 +14°C° 0 mm 4 mps 740 mmHg 57%
    07:00 +14°C° 0 mm 4 mps 740 mmHg 54%
    08:00 +17°C° 0 mm 4 mps 740 mmHg 48%
    09:00 +19°C° 0 mm 4 mps 741 mmHg 42%
    10:00 +21°C° 0 mm 4 mps 741 mmHg 36%
    11:00 +22°C° 0 mm 4 mps 741 mmHg 33%
    12:00 +23°C° 0 mm 5 mps 741 mmHg 30%
    13:00 +25°C° 0 mm 5 mps 741 mmHg 26%
    14:00 +23°C° 0 mm 5 mps 741 mmHg 26%
    15:00 +23°C° 0 mm 5 mps 740 mmHg 27%
    16:00 +22°C° 0 mm 5 mps 740 mmHg 27%
    17:00 +20°C° 0 mm 4 mps 741 mmHg 30%
    18:00 +18°C° 0 mm 4 mps 741 mmHg 34%
    19:00 +14°C° 0 mm 4 mps 742 mmHg 37%
    20:00 +14°C° 0 mm 4 mps 742 mmHg 40%
    21:00 +13°C° 0 mm 4 mps 743 mmHg 42%
    22:00 +12°C° 0 mm 4 mps 743 mmHg 44%
    23:00 +11°C° 0 mm 4 mps 744 mmHg 46%

    Day after tomorrow, 26 September, Wednesday

    Time Temperature Precipitation Wind Pressure Humidity
    00:00 +11°C° 0 mm 4 mps 744 mmHg 48%
    01:00 +10°C° 0 mm 4 mps 744 mmHg 50%
    02:00 +8°C° 0 mm 4 mps 744 mmHg 52%
    03:00 +8°C° 0 mm 4 mps 744 mmHg 53%
    04:00 +8°C° 0 mm 4 mps 744 mmHg 54%
    05:00 +8°C° 0 mm 4 mps 744 mmHg 51%
    06:00 +10°C° 0 mm 4 mps 744 mmHg 48%
    07:00 +10°C° 0 mm 5 mps 745 mmHg 45%
    08:00 +13°C° 0 mm 5 mps 745 mmHg 39%
    09:00 +15°C° 0 mm 5 mps 745 mmHg 32%
    10:00 +17°C° 0 mm 6 mps 745 mmHg 26%
    11:00 +19°C° 0 mm 6 mps 745 mmHg 24%
    12:00 +19°C° 0 mm 6 mps 745 mmHg 22%
    13:00 +20°C° 0 mm 5 mps 744 mmHg 20%
    14:00 +20°C° 0 mm 5 mps 744 mmHg 21%
    15:00 +19°C° 0 mm 5 mps 744 mmHg 21%
    16:00 +19°C° 0 mm 5 mps 744 mmHg 22%
    17:00 +16°C° 0 mm 5 mps 744 mmHg 26%
    18:00 +14°C° 0 mm 4 mps 745 mmHg 29%
    19:00 +11°C° 0 mm 4 mps 745 mmHg 33%
    20:00 +11°C° 0 mm 3 mps 745 mmHg 35%
    21:00 +10°C° 0 mm 3 mps 746 mmHg 37%
    22:00 +9°C° 0 mm 3 mps 746 mmHg 40%
    23:00 +9°C° 0 mm 3 mps 746 mmHg 42%

    27 September, Thursday

    Time Temperature Precipitation Wind Pressure Humidity
    00:00 +9°C° 0 mm 3 mps 746 mmHg 44%
    01:00 +8°C° 0 mm 3 mps 746 mmHg 46%
    02:00 +8°C° 0 mm 3 mps 745 mmHg 47%
    03:00 +8°C° 0 mm 3 mps 745 mmHg 48%
    04:00 +7°C° 0 mm 3 mps 745 mmHg 49%
    05:00 +9°C° 0 mm 3 mps 745 mmHg 45%
    06:00 +10°C° 0 mm 3 mps 744 mmHg 42%
    07:00 +11°C° 0 mm 3 mps 744 mmHg 39%
    08:00 +13°C° 0 mm 3 mps 744 mmHg 32%
    09:00 +17°C° 0 mm 3 mps 743 mmHg 26%
    10:00 +19°C° 0 mm 3 mps 743 mmHg 20%
    11:00 +20°C° 0 mm 4 mps 742 mmHg 18%
    12:00 +22°C° 0 mm 4 mps 742 mmHg 17%
    13:00 +23°C° 0 mm 4 mps 741 mmHg 16%
    14:00 +22°C° 0 mm 4 mps 741 mmHg 17%
    15:00 +22°C° 0 mm 4 mps 740 mmHg 18%
    16:00 +22°C° 0 mm 5 mps 739 mmHg 19%
    17:00 +19°C° 0 mm 4 mps 739 mmHg 23%
    18:00 +17°C° 0 mm 4 mps 740 mmHg 26%
    19:00 +14°C° 0 mm 4 mps 740 mmHg 30%
    20:00 +13°C° 0 mm 4 mps 740 mmHg 33%
    21:00 +12°C° 0 mm 4 mps 739 mmHg 35%
    22:00 +11°C° 0 mm 3 mps 739 mmHg 38%
    23:00 +11°C° 0 mm 3 mps 739 mmHg 39%

    28 September, Friday

    Time Temperature Precipitation Wind Pressure Humidity
    00:00 +10°C° 0 mm 3 mps 739 mmHg 41%
    01:00 +10°C° 0 mm 3 mps 739 mmHg 43%
    02:00 +10°C° 0 mm 3 mps 738 mmHg 44%
    03:00 +10°C° 0 mm 3 mps 738 mmHg 44%
    04:00 +9°C° 0 mm 3 mps 738 mmHg 45%
    05:00 +11°C° 0 mm 3 mps 738 mmHg 43%
    06:00 +12°C° 0 mm 3 mps 738 mmHg 42%
    07:00 +13°C° 0 mm 3 mps 738 mmHg 40%
    08:00 +16°C° 0 mm 3 mps 737 mmHg 35%
    09:00 +19°C° 0 mm 3 mps 737 mmHg 30%
    10:00 +21°C° 0 mm 3 mps 737 mmHg 24%
    11:00 +23°C° 0 mm 2 mps 737 mmHg 24%
    12:00 +25°C° 0 mm 2 mps 737 mmHg 23%
    13:00 +26°C° 0 mm 2 mps 736 mmHg 22%
    14:00 +26°C° 0 mm 2 mps 736 mmHg 23%
    15:00 +25°C° 0 mm 3 mps 736 mmHg 24%
    16:00 +25°C° 0 mm 3 mps 735 mmHg 24%
    17:00 +22°C° 0 mm 3 mps 735 mmHg 30%
    18:00 +19°C° 0 mm 2 mps 736 mmHg 35%
    19:00 +17°C° 0 mm 2 mps 736 mmHg 40%
    20:00 +16°C° 0 mm 2 mps 736 mmHg 40%
    21:00 +16°C° 0 mm 2 mps 736 mmHg 40%
    22:00 +15°C° 0 mm 2 mps 736 mmHg 39%
    23:00 +15°C° 0 mm 2 mps 736 mmHg 40%

    29 September, Saturday

    Time Temperature Precipitation Wind Pressure Humidity
    00:00 +15°C° 0 mm 2 mps 736 mmHg 41%
    01:00 +14°C° 0 mm 2 mps 736 mmHg 42%
    02:00 +14°C° 0 mm 2 mps 736 mmHg 44%
    03:00 +14°C° 0 mm 2 mps 736 mmHg 45%
    04:00 +14°C° 0 mm 2 mps 735 mmHg 47%
    05:00 +15°C° 0 mm 2 mps 736 mmHg 46%
    06:00 +16°C° 0 mm 2 mps 736 mmHg 46%
    07:00 +17°C° 0 mm 2 mps 736 mmHg 45%
    08:00 +20°C° 0 mm 1 mps 736 mmHg 40%
    09:00 +22°C° 0 mm 1 mps 736 mmHg 34%
    10:00 +25°C° 0 mm 1 mps 736 mmHg 29%
    11:00 +25°C° 0 mm 1 mps 736 mmHg 28%
    12:00 +26°C° 0 mm 2 mps 735 mmHg 27%
    13:00 +27°C° 0 mm 3 mps 735 mmHg 27%
    14:00 +26°C° 0 mm 3 mps 735 mmHg 29%
    15:00 +26°C° 0 mm 3 mps 735 mmHg 31%
    16:00 +25°C° 0 mm 3 mps 735 mmHg 32%
    17:00 +23°C° 0 mm 2 mps 735 mmHg 39%
    18:00 +21°C° 0 mm 1 mps 735 mmHg 46%
    19:00 +18°C° 0 mm 1 mps 736 mmHg 53%
    20:00 +18°C° 0 mm 1 mps 736 mmHg 53%
    21:00 +18°C° 0 mm 1 mps 736 mmHg 53%
    22:00 +18°C° 0 mm 1 mps 737 mmHg 53%
    23:00 +16°C° 0 mm 1 mps 737 mmHg 53%
    Show more